Theta_e
321 321 321 321 321 321 321 321 321 320 320 320 320 320 320 320 321 321 322 321 320 320 320 322 323 325 321 309 311 317 337 348 341 329 324 325 322 321 320 326 327 324 325 327 329 329 329
321 321 321 321 321 321 320 320 320 320 320 319 319 319 319 319 320 321 321 321 320 320 320 322 324 326 314 305 316 318 317 317 326 326 324 326 322 322 326 326 325 327 326 325 328 327 327
322 321 321 321 320 320 320 320 320 320 320 319 319 319 319 319 319 319 319 318 318 319 321 322 324 325 310 309 316 318 318 317 318 323 317 321 324 321 330 325 330 327 321 324 326 327 324
322 323 322 321 320 320 319 319 319 319 319 319 319 319 320 321 319 319 318 316 318 320 322 323 326 320 307 314 316 317 319 318 319 319 319 320 325 331 329 332 326 322 320 316 322 326 324
325 324 323 322 321 321 320 319 319 319 319 319 319 320 321 319 318 317 316 316 318 324 324 326 318 311 306 321 314 318 320 316 316 317 319 323 325 328 328 322 318 318 312 314 317 326 323
325 324 324 324 323 321 320 320 320 319 319 320 321 320 320 318 317 315 314 315 316 322 324 324 321 306 309 308 313 315 318 317 315 316 319 320 321 322 323 320 308 310 311 314 315 320 323
325 325 325 324 324 323 321 321 320 319 320 321 320 320 319 317 316 314 313 312 312 311 314 307 305 305 307 314 315 315 315 315 315 313 312 315 315 313 315 319 317 315 314 314 318 323 320
325 324 324 323 323 323 322 322 321 320 320 320 320 319 318 316 315 314 310 311 311 312 308 313 311 309 311 313 310 314 315 312 311 306 312 313 313 316 314 315 313 315 314 315 319 322 321
323 323 323 322 322 322 322 322 321 319 319 320 319 319 316 315 314 311 309 311 314 315 308 310 311 310 312 314 310 311 312 310 309 306 307 312 317 315 314 315 315 316 315 315 315 321 323
322 322 321 322 322 321 321 321 321 319 319 319 319 318 316 313 311 310 311 314 315 314 303 303 305 310 311 312 308 315 313 312 308 305 309 311 315 313 312 313 316 311 319 317 317 315 310
322 321 321 321 321 321 321 320 320 319 319 319 319 318 314 312 312 311 310 314 315 309 291 303 306 314 311 309 307 310 312 311 307 307 309 309 311 312 313 314 318 315 320 319 318 315 313
322 321 321 321 321 321 320 320 319 319 318 318 318 316 313 310 310 313 314 314 310 300 290 302 307 307 307 308 307 307 309 311 311 309 310 311 313 314 317 316 320 319 317 315 314 313 307
322 321 321 320 320 320 320 320 319 318 317 317 315 312 311 313 313 313 314 311 302 294 302 303 304 306 305 305 305 305 305 305 304 301 303 304 307 310 313 310 318 317 313 307 305 306 304
323 321 321 320 320 320 320 320 319 318 317 315 312 309 311 312 315 313 313 309 294 297 301 307 306 303 302 303 304 303 303 302 302 305 303 303 301 307 312 311 310 313 312 307 300 302 304
323 322 321 320 319 320 320 320 318 317 316 313 310 312 310 313 313 312 311 301 299 299 305 304 305 301 301 302 302 303 303 303 305 305 302 301 303 308 311 315 314 311 310 313 307 307 305
323 323 321 320 319 319 320 319 318 317 315 312 311 309 315 314 314 312 309 298 303 305 308 306 301 302 299 302 300 301 301 304 303 305 308 305 301 307 309 315 315 313 315 308 310 302 300
323 322 321 320 319 319 320 320 317 316 313 310 309 313 314 314 312 312 302 303 305 309 309 305 303 301 302 303 301 299 301 304 304 303 306 305 303 302 305 307 308 311 310 310 311 309 302
323 322 321 320 319 319 321 319 316 313 310 310 309 311 315 313 308 304 305 304 302 307 310 309 307 306 304 304 303 300 301 303 306 305 302 306 304 300 303 305 305 313 311 312 304 304 306
321 322 321 320 319 319 321 319 315 313 310 311 307 307 318 315 302 303 304 305 306 309 309 307 306 307 307 306 303 303 303 307 304 305 304 304 302 298 299 302 304 304 309 312 311 311 308
320 321 322 321 320 320 320 318 315 313 311 311 307 312 315 312 308 306 306 307 308 313 311 312 311 308 306 304 306 305 306 310 305 306 321 310 302 302 298 303 306 305 307 310 311 307 307
320 320 322 322 320 320 320 319 315 313 311 311 307 313 315 308 309 309 310 309 308 309 314 314 310 307 307 307 303 304 307 309 311 317 307 307 302 303 304 304 305 305 307 308 308 310 307
319 320 320 322 321 320 320 319 316 314 310 311 307 308 311 311 310 310 306 310 309 310 312 311 309 313 312 310 305 307 310 311 312 310 305 304 304 302 302 302 303 303 306 308 309 308 310
319 319 320 321 322 320 320 319 316 314 310 311 311 311 310 304 309 310 310 310 310 312 313 316 315 312 312 310 316 318 318 317 313 311 309 306 304 302 300 303 303 301 306 308 309 311 312
318 318 319 320 322 321 320 319 317 315 312 313 312 311 309 305 307 309 312 310 309 311 309 313 314 313 317 322 319 316 314 314 313 314 312 308 308 306 302 304 296 307 309 310 308 310 314
317 318 318 319 321 321 321 319 318 317 312 315 313 312 310 305 307 307 308 308 310 310 309 312 315 320 321 318 312 309 311 311 312 310 309 309 309 304 304 302 303 306 314 313 312 311 316
317 317 317 318 320 321 321 320 318 318 314 315 313 313 312 307 306 308 307 308 307 308 310 311 316 319 319 314 312 306 302 307 307 310 315 311 310 310 302 302 298 309 317 320 319 307 319
316 316 317 318 319 321 321 321 319 318 316 315 314 314 312 308 311 310 307 306 310 310 308 309 311 315 316 313 309 307 306 310 307 308 309 311 312 307 304 303 306 310 319 321 308 309 321
316 316 316 317 318 320 321 321 320 319 318 315 315 314 312 309 310 313 312 310 310 311 306 310 311 313 313 312 309 310 309 312 312 313 312 310 309 310 307 304 303 320 318 314 320 324 323
315 316 316 317 317 319 321 321 320 319 318 316 311 315 315 308 311 314 317 318 316 315 312 312 311 312 313 313 313 315 313 313 311 306 315 308 313 312 313 313 320 324 322 324 323 324 325
Wind_Speed
12 13 13 14 14 15 15 16 16 16 16 15 15 15 16 15 15 15 14 14 14 15 15 15 15 14 4 2 7 2 6 4 6 5 5 3 3 2 2 1 3 2 2 1 1 4 5
12 12 13 13 14 14 15 15 16 17 17 17 17 17 17 18 18 18 18 16 15 14 13 12 11 11 2 5 1 0 7 5 6 5 3 5 3 2 2 2 1 3 3 2 2 3 4
10 12 12 13 13 13 14 15 16 16 16 18 18 19 20 20 20 19 19 19 17 15 13 11 7 3 2 13 2 8 6 2 3 4 3 3 2 3 4 3 3 3 2 3 1 2 3
11 10 10 12 13 13 14 14 16 16 17 17 18 19 20 20 22 22 22 20 18 16 11 7 4 2 8 3 3 10 3 2 5 6 4 4 1 6 1 6 2 1 1 2 2 2 2
8 8 10 12 12 12 13 14 15 16 16 18 19 20 18 21 21 24 23 22 17 6 4 6 2 2 8 8 3 1 5 3 3 2 1 3 1 3 4 3 2 3 4 2 1 3 3
8 9 9 9 11 12 15 14 13 16 17 19 17 17 18 21 22 24 24 17 4 1 3 3 2 4 5 1 4 4 2 3 2 2 3 1 2 1 2 2 6 7 6 2 4 1 6
10 10 11 10 10 11 13 15 16 17 16 17 17 17 19 22 23 23 11 1 2 2 2 6 2 3 4 8 3 1 2 6 4 2 6 1 6 7 4 6 3 0 4 2 1 4 3
9 9 11 12 11 11 11 12 15 18 18 16 17 18 20 23 21 14 4 3 6 3 8 7 11 9 5 3 5 3 2 7 5 6 4 5 9 4 2 2 1 3 4 4 2 4 3
9 9 9 10 12 11 11 13 12 18 19 16 16 17 20 23 22 2 4 3 3 2 4 5 3 4 3 9 5 5 7 5 5 7 9 10 5 4 3 1 3 2 5 3 4 5 2
9 9 9 10 11 12 12 13 13 16 19 17 16 16 21 27 3 4 1 1 8 5 3 2 1 0 4 5 5 6 7 3 3 11 10 8 4 5 2 6 3 6 7 2 2 3 3
9 9 10 10 10 12 12 13 14 15 17 17 17 15 16 5 7 3 2 7 2 4 2 3 2 2 2 5 2 5 1 3 8 7 7 9 9 8 8 4 4 3 4 1 2 1 4
8 9 9 10 10 12 12 13 15 15 18 17 17 14 13 1 2 5 6 7 3 3 2 3 2 2 6 3 1 2 3 2 3 5 1 3 1 4 11 2 4 8 5 3 0 3 4
8 8 9 10 10 11 12 13 14 16 18 18 19 14 7 2 2 4 6 3 2 3 3 4 3 1 4 7 3 4 9 10 9 10 8 2 4 1 3 4 5 5 5 3 3 2 3
8 8 8 9 10 11 13 14 14 16 18 20 21 18 3 5 3 6 3 3 3 1 3 3 5 1 6 8 6 3 7 11 2 4 5 11 12 8 6 8 3 6 5 4 4 2 4
10 8 8 8 9 10 12 13 14 16 19 20 21 1 2 1 4 3 3 4 3 4 2 8 6 2 3 4 5 8 5 11 10 8 9 8 12 2 6 5 5 5 6 3 4 1 6
10 9 8 8 9 10 12 12 13 16 20 21 5 4 2 5 5 3 2 3 3 4 3 2 3 2 3 1 5 10 10 7 9 13 7 7 6 8 5 6 5 5 9 4 1 4 6
11 8 8 8 9 10 11 11 13 15 20 13 2 2 6 3 2 1 4 5 5 5 5 2 1 5 3 3 3 4 7 5 8 12 7 9 4 4 4 11 12 6 5 3 1 3 6
11 8 8 8 9 10 10 10 11 12 20 5 4 1 4 3 2 1 3 3 1 3 4 5 3 7 5 2 4 4 8 8 8 15 13 8 8 7 9 3 3 3 6 9 6 5 2
10 9 8 8 9 9 10 8 9 9 10 4 4 3 2 4 2 2 1 2 3 3 4 2 4 7 3 4 3 6 5 2 12 14 17 11 8 7 6 4 2 6 5 4 4 2 7
10 9 9 8 8 9 9 7 7 7 6 1 2 1 1 1 1 1 1 0 3 4 6 5 5 3 3 4 7 3 3 1 8 7 4 15 6 13 11 10 6 7 7 9 10 5 4
9 9 9 8 7 7 9 6 7 6 4 2 1 2 2 2 3 3 2 1 4 3 4 3 3 6 3 4 3 5 4 1 1 7 4 10 11 10 12 7 5 4 9 12 12 10 7
9 9 10 9 7 6 7 5 5 5 2 1 3 3 2 1 2 3 2 4 5 3 3 3 4 9 6 7 2 1 4 1 3 4 5 3 4 6 6 7 6 5 6 8 11 5 12
8 9 10 10 8 7 6 4 4 4 1 1 1 1 3 1 2 2 3 3 3 2 4 9 9 10 7 5 7 12 10 8 6 5 3 5 6 5 3 5 9 6 12 12 9 8 11
7 9 11 10 9 7 6 4 4 2 4 0 1 2 2 1 3 4 2 2 5 6 7 7 10 5 2 10 8 3 4 4 5 2 2 6 5 2 4 6 7 3 2 5 8 12 13
9 10 11 11 9 8 6 6 5 4 6 1 1 1 1 3 3 8 9 7 9 5 5 7 7 6 11 7 3 2 3 5 3 6 2 2 4 3 3 5 3 4 4 4 3 7 4
10 10 11 11 10 9 7 7 5 5 7 1 1 1 2 3 3 4 3 2 3 3 4 4 3 7 4 2 2 3 4 3 4 4 2 6 4 3 3 4 8 2 4 2 3 6 5
11 11 11 11 10 9 9 9 7 4 8 2 0 3 1 3 3 4 4 3 1 2 4 4 6 4 2 2 2 2 2 1 3 5 4 2 2 3 4 4 4 4 4 6 6 2 5
10 11 10 11 10 9 10 10 9 6 8 3 0 4 3 3 7 6 5 4 2 2 3 4 4 3 2 3 3 2 3 2 3 0 2 3 4 2 2 3 6 8 6 8 3 3 6
11 11 10 10 10 10 10 10 10 8 8 6 2 2 3 3 6 3 8 12 14 14 4 1 4 3 2 0 2 2 3 2 1 4 2 4 3 2 6 2 1 6 6 3 3 5 7
Wind_Direction
27 24 20 19 15 14 12 10 7 7 4 1 359 355 351 345 340 333 332 328 320 315 314 313 317 323 317 325 252 230 20 56 156 195 230 219 253 156 285 138 165 100 69 170 209 31 56
24 21 19 14 12 10 7 7 5 3 359 357 356 353 349 343 337 333 328 325 319 309 303 303 310 313 283 260 357 244 339 333 206 215 215 207 235 155 120 127 48 70 151 202 236 74 56
22 18 17 13 12 10 5 3 3 1 357 354 352 350 347 341 335 330 327 324 317 306 294 287 287 274 219 247 138 311 303 248 242 224 264 243 236 200 132 127 100 107 216 177 332 90 84
18 16 12 10 9 8 5 2 360 358 356 352 349 344 334 333 333 327 324 321 313 303 282 262 235 217 251 217 276 286 237 238 235 258 255 307 180 100 83 126 75 43 93 335 63 187 38
354 -0 4 3 1 0 360 357 353 353 351 348 342 336 331 336 331 325 321 315 311 324 127 145 167 238 261 314 235 243 216 148 162 184 216 131 157 71 148 144 164 15 341 292 312 203 151
355 358 355 352 354 352 354 353 349 346 345 342 331 327 331 335 329 326 319 305 276 278 160 192 248 265 259 11 306 317 172 176 147 118 149 203 73 156 120 249 323 324 319 274 274 176 216
356 352 350 345 342 340 347 347 346 344 340 333 330 328 334 333 328 330 334 148 238 168 192 229 177 273 289 317 269 323 54 149 123 140 195 32 221 238 266 249 31 42 294 271 210 180 220
346 343 341 343 340 337 332 334 343 341 337 332 329 328 337 333 325 323 291 52 87 21 299 241 252 269 272 334 304 271 199 176 160 179 152 180 219 212 242 43 232 220 242 230 209 171 237
330 332 333 331 332 335 336 333 328 339 335 330 328 328 338 332 323 318 329 116 35 311 266 292 215 232 234 179 219 245 190 161 157 161 189 210 192 144 189 219 250 217 243 225 323 156 155
320 323 326 326 330 332 333 327 324 334 333 327 325 328 339 329 266 339 300 111 326 215 298 271 240 268 163 179 226 202 197 180 153 208 173 223 179 230 217 273 243 274 229 233 249 250 328
310 315 319 322 327 325 328 327 325 327 329 322 320 324 333 340 311 260 52 316 288 216 276 11 124 73 114 216 38 175 154 113 171 167 190 186 174 196 240 290 195 334 114 145 237 240 282
294 305 312 318 322 321 327 324 323 322 325 318 314 320 338 172 233 264 313 312 209 247 254 34 118 163 156 222 251 100 149 76 83 141 186 166 254 199 230 113 179 142 116 97 120 294 255
280 293 305 313 317 324 321 318 315 322 324 316 312 308 303 247 270 334 306 211 246 232 332 27 359 262 216 190 200 177 174 174 187 184 182 154 195 180 211 186 128 207 228 275 236 213 327
274 284 296 307 315 322 315 317 314 318 322 317 316 314 197 219 284 339 224 182 233 309 302 311 317 278 202 168 209 160 161 186 160 169 171 204 208 192 165 221 238 197 236 255 290 312 342
276 279 291 303 312 314 316 319 323 325 323 323 316 333 236 283 239 244 213 195 232 210 309 326 314 72 196 203 221 191 199 207 200 185 209 189 223 181 214 205 205 155 210 340 186 161 269
284 274 286 299 311 316 316 324 331 331 328 329 323 317 358 352 164 203 181 225 229 222 306 286 318 352 336 300 205 195 191 189 202 195 199 189 205 204 159 140 74 244 135 176 207 249 263
293 269 282 294 305 311 319 328 337 335 329 328 300 273 12 115 219 201 197 223 237 239 232 288 286 305 259 293 238 207 199 217 216 183 195 170 255 134 170 202 192 159 182 82 166 260 274
311 274 281 291 300 310 320 334 341 347 335 33 325 187 27 264 153 352 192 208 298 270 204 264 256 239 242 244 252 226 221 243 173 159 179 189 209 227 201 93 349 248 225 192 241 199 253
314 290 279 285 296 308 318 337 344 357 27 321 350 306 74 294 193 176 229 253 251 256 251 210 255 226 198 256 253 221 204 212 162 162 171 172 213 197 200 170 172 223 180 182 136 155 217
308 306 277 274 289 304 314 333 342 354 7 318 295 169 110 74 21 126 108 280 274 226 253 247 271 249 267 257 227 279 248 41 187 209 137 164 165 212 226 214 169 185 191 197 212 196 177
298 305 300 267 269 290 311 324 346 358 14 283 343 52 1 190 197 218 222 283 275 282 224 234 240 246 318 279 208 216 245 231 102 130 145 195 206 198 220 226 204 196 190 184 206 220 225
288 296 297 282 260 275 298 313 342 360 109 293 335 331 354 289 282 212 198 216 228 264 257 226 246 329 299 226 326 332 341 260 55 169 151 195 168 190 223 202 205 231 211 200 231 252 255
291 296 299 293 257 258 279 278 314 9 214 3 38 232 280 88 175 193 214 244 246 4 247 255 295 317 286 222 308 286 266 283 286 321 136 161 154 169 226 167 163 216 227 214 225 213 233
299 302 300 297 259 241 261 236 271 104 67 40 44 289 276 269 235 225 281 242 276 285 269 292 302 272 17 313 285 205 198 232 233 24 289 145 131 156 115 175 197 107 223 201 222 251 248
303 304 304 300 279 228 242 213 248 181 147 93 137 271 275 273 288 271 258 262 285 286 256 260 262 279 329 302 269 195 159 167 95 34 67 316 140 118 193 202 334 205 175 211 226 279 266
298 296 297 299 295 231 223 201 236 224 171 126 224 211 242 286 224 287 301 287 279 283 280 251 312 325 306 300 300 206 188 159 173 160 90 98 66 214 161 213 219 173 138 115 215 251 81
299 294 291 293 290 250 217 200 212 233 186 188 199 202 246 257 263 223 242 295 225 250 276 303 345 326 5 255 215 210 209 0 222 184 158 101 63 222 163 239 269 183 153 148 207 293 333
298 296 292 289 286 272 219 202 199 215 182 182 275 197 245 260 277 230 241 233 206 225 287 7 289 182 276 233 233 165 226 156 228 63 262 216 189 183 146 217 243 144 139 212 30 320 309
308 294 281 281 280 270 230 207 191 201 193 183 249 150 187 242 284 293 262 260 248 260 266 248 324 280 306 334 206 195 192 185 314 221 153 230 270 242 227 249 94 195 257 226 317 304 321